weather.gov     
National Weather Service

Terminal Aerodrome Forecast
NWS Homepage
This page is being discontinued on March 12, 2014.
The same data is available at this site. Please update your bookmarks.
Thank you, and we apologize for the inconvenience.
Please send an email to SR-SRH.Webmaster@noaa.gov with any concerns.


Current Version
Previous Version:    01  02  03  04  05  06  07  08  09  10  11  12  13  14  15  16  17  18  19  20  21  22  23  24  25  26  27  28  29  30  
   31  
[Printable]
844
FTUS46 KSGX 230100 AAA
TAFCRQ
TAF AMD
KCRQ 230107Z 2301/2324 VRB05KT P6SM SKC
     FM230200 VRB05KT 3SM BR SCT001
      TEMPO 2303/2305 1SM BR SCT001
     FM230700 VRB05KT P6SM SKC
     FM231600 08007KT P6SM SKC WS008/08025KT=


U.S. Dept. of Commerce
NOAA National Weather Service
1325 East West Highway
Silver Spring, MD 20910
E-mail: w-nws.webmaster@noaa.gov
Page last modified: May 16, 2007
NATIONAL WEATHER SERVICE: for Safety, for Work, for Fun - FOR LIFE